Location: Newark
(60.6561°N, 46.5772°E)
Time: 21:32:03
(UTC+00:00)

Tiros 1 despin weight - Pass Details

Date: 25 October 2019
Orbit: 594 x 642 km, 48.2° (Epoch: 16 November)

Event Time Altitude Azimuth Distance (km) Brightness Sun altitude
Rises 00:05:58 0° 254° (WSW) 2,941 - -28.4°
Reaches altitude 10° 00:09:12 10° 231° (SW) 2,035 - -28.0°
Maximum altitude 00:11:47 15° 197° (SSW) 1,737 - -27.7°
Drops below altitude 10° 00:14:23 10° 163° (SSE) 2,034 - -27.5°
Exits shadow 00:15:49 - 151° (SSE) 2,395 ? -27.3°
Sets 00:17:37 0° 140° (SE) 2,939 ? -27.1°
